Time,TemperatureF,DewpointF,PressureIn,WindDirection,WindDirectionDegrees,WindSpeedMPH,WindSpeedGustMPH,Humidity,HourlyPrecipIn,Conditions,Clouds,dailyrainin,SoftwareType,DateUTC
2013-03-13 00:02:00,32.0,23.0,30.27,SSE,155,0.0,-999.0,69,-99.99,,,-99.99,,2013-03-13 06:02:00,
2013-03-13 00:12:00,32.0,23.0,30.27,SSE,155,0.0,-999.0,69,-99.99,,,-99.99,,2013-03-13 06:12:00,
2013-03-13 00:22:00,32.0,23.0,30.27,SSE,155,0.0,-999.0,68,-99.99,,,-99.99,,2013-03-13 06:22:00,
2013-03-13 00:32:00,32.0,23.0,30.27,SSE,155,0.0,-999.0,69,-99.99,,,-99.99,,2013-03-13 06:32:00,
2013-03-13 00:42:00,32.0,23.0,30.27,SSE,155,0.0,-999.0,69,-99.99,,,-99.99,,2013-03-13 06:42:00,
2013-03-13 00:52:00,31.0,22.0,30.27,SSE,155,0.0,-999.0,69,-99.99,,,-99.99,,2013-03-13 06:52:00,
2013-03-13 01:02:00,31.0,22.0,30.27,SSE,155,0.0,-999.0,70,-99.99,,,-99.99,,2013-03-13 07:02:00,
2013-03-13 01:12:00,31.0,22.0,30.27,SSE,155,0.0,-999.0,70,-99.99,,,-99.99,,2013-03-13 07:12:00,
2013-03-13 01:22:00,31.0,22.0,30.27,SSE,155,0.0,-999.0,69,-99.99,,,-99.99,,2013-03-13 07:22:00,
2013-03-13 01:32:00,31.0,22.0,30.27,SSE,155,0.0,-999.0,69,-99.99,,,-99.99,,2013-03-13 07:32:00,
2013-03-13 01:42:00,31.0,22.0,30.27,SSE,155,0.0,-999.0,69,-99.99,,,-99.99,,2013-03-13 07:42:00,
2013-03-13 01:52:00,31.0,22.0,30.27,SSE,155,0.0,-999.0,68,-99.99,,,-99.99,,2013-03-13 07:52:00,
2013-03-13 02:03:00,30.0,21.0,30.27,SSE,155,0.0,-999.0,70,-99.99,,,-99.99,,2013-03-13 08:03:00,
2013-03-13 02:12:00,30.0,21.0,30.27,SSE,155,0.0,-999.0,70,-99.99,,,-99.99,,2013-03-13 08:12:00,
2013-03-13 02:22:00,30.0,21.0,30.30,SSE,155,0.0,-999.0,70,-99.99,,,-99.99,,2013-03-13 08:22:00,
2013-03-13 02:32:00,29.0,21.0,30.28,SSE,155,0.0,-999.0,72,-99.99,,,-99.99,,2013-03-13 08:32:00,
2013-03-13 02:42:00,29.0,21.0,30.28,SSE,155,0.0,-999.0,72,-99.99,,,-99.99,,2013-03-13 08:42:00,
2013-03-13 02:52:00,29.0,21.0,30.29,SSE,155,0.0,-999.0,71,-99.99,,,-99.99,,2013-03-13 08:52:00,
2013-03-13 03:02:00,29.0,21.0,30.29,SSE,155,0.0,-999.0,71,-99.99,,,-99.99,,2013-03-13 09:02:00,
2013-03-13 03:11:00,29.0,21.0,30.29,SSE,155,0.0,-999.0,71,-99.99,,,-99.99,,2013-03-13 09:11:00,
2013-03-13 03:22:00,28.0,20.0,30.28,SSE,155,0.0,-999.0,72,-99.99,,,-99.99,,2013-03-13 09:22:00,
2013-03-13 03:32:00,29.0,21.0,30.28,SSE,155,0.0,-999.0,72,-99.99,,,-99.99,,2013-03-13 09:32:00,
2013-03-13 03:42:00,29.0,21.0,30.28,SSE,155,0.0,-999.0,72,-99.99,,,-99.99,,2013-03-13 09:42:00,
2013-03-13 03:52:00,29.0,20.0,30.27,SSE,155,0.0,-999.0,70,-99.99,,,-99.99,,2013-03-13 09:52:00,
2013-03-13 04:01:00,28.0,20.0,30.27,SSE,155,0.0,-999.0,72,-99.99,,,-99.99,,2013-03-13 10:01:00,
2013-03-13 04:11:00,28.0,20.0,30.27,SSE,155,0.0,-999.0,72,-99.99,,,-99.99,,2013-03-13 10:11:00,
2013-03-13 04:22:00,28.0,20.0,30.26,SSE,155,0.0,-999.0,71,-99.99,,,-99.99,,2013-03-13 10:22:00,
2013-03-13 04:32:00,28.0,20.0,30.26,SSE,155,0.0,-999.0,72,-99.99,,,-99.99,,2013-03-13 10:32:00,
2013-03-13 04:42:00,28.0,20.0,30.26,SSE,155,0.0,-999.0,72,-99.99,,,-99.99,,2013-03-13 10:42:00,
2013-03-13 04:52:00,28.0,20.0,30.26,SSE,155,0.0,-999.0,72,-99.99,,,-99.99,,2013-03-13 10:52:00,
2013-03-13 05:02:00,27.0,19.0,30.26,SSE,155,0.0,-999.0,72,-99.99,,,-99.99,,2013-03-13 11:02:00,
2013-03-13 05:12:00,27.0,19.0,30.26,SSE,155,0.0,-999.0,72,-99.99,,,-99.99,,2013-03-13 11:12:00,
2013-03-13 05:22:00,28.0,20.0,30.26,SSE,155,0.0,-999.0,71,-99.99,,,-99.99,,2013-03-13 11:22:00,
2013-03-13 05:32:00,27.0,19.0,30.26,SSE,155,0.0,-999.0,70,-99.99,,,-99.99,,2013-03-13 11:32:00,
2013-03-13 05:42:00,27.0,19.0,30.26,SSE,155,0.0,-999.0,70,-99.99,,,-99.99,,2013-03-13 11:42:00,
2013-03-13 05:52:00,27.0,19.0,30.27,SSE,155,0.0,-999.0,71,-99.99,,,-99.99,,2013-03-13 11:52:00,
2013-03-13 06:02:00,27.0,18.0,30.27,SSE,155,0.0,-999.0,69,-99.99,,,-99.99,,2013-03-13 12:02:00,
2013-03-13 06:11:00,27.0,18.0,30.27,SSE,155,0.0,-999.0,69,-99.99,,,-99.99,,2013-03-13 12:11:00,
2013-03-13 06:22:00,27.0,18.0,30.27,SSE,155,0.0,-999.0,68,-99.99,,,-99.99,,2013-03-13 12:22:00,
2013-03-13 06:32:00,26.0,17.0,30.27,SSE,155,0.0,-999.0,69,-99.99,,,-99.99,,2013-03-13 12:32:00,
2013-03-13 06:41:00,26.0,17.0,30.27,SSE,155,0.0,-999.0,69,-99.99,,,-99.99,,2013-03-13 12:41:00,
2013-03-13 06:52:00,26.0,17.0,30.27,SSE,155,0.0,-999.0,69,-99.99,,,-99.99,,2013-03-13 12:52:00,
2013-03-13 07:02:00,26.0,17.0,30.28,SSE,155,0.0,-999.0,69,-99.99,,,-99.99,,2013-03-13 13:02:00,
2013-03-13 07:11:00,26.0,17.0,30.28,SSE,155,0.0,-999.0,69,-99.99,,,-99.99,,2013-03-13 13:11:00,
2013-03-13 07:32:00,25.0,16.0,30.29,SSE,155,0.0,-999.0,69,-99.99,,,-99.99,,2013-03-13 13:32:00,
2013-03-13 07:42:00,25.0,16.0,30.29,SSE,155,0.0,-999.0,69,-99.99,,,-99.99,,2013-03-13 13:42:00,
2013-03-13 07:52:00,27.0,17.0,30.28,SSE,155,0.0,-999.0,66,-99.99,,,-99.99,,2013-03-13 13:52:00,
2013-03-13 08:02:00,26.0,17.0,30.28,SSE,155,0.0,-999.0,67,-99.99,,,-99.99,,2013-03-13 14:02:00,
2013-03-13 08:11:00,26.0,17.0,30.28,SSE,155,0.0,-999.0,67,-99.99,,,-99.99,,2013-03-13 14:11:00,
2013-03-13 08:21:00,26.0,17.0,30.29,SSE,155,0.0,-999.0,67,-99.99,,,-99.99,,2013-03-13 14:21:00,
2013-03-13 08:33:00,26.0,17.0,30.29,SSE,155,0.0,-999.0,67,-99.99,,,-99.99,,2013-03-13 14:33:00,
2013-03-13 08:42:00,26.0,17.0,30.29,SSE,155,0.0,-999.0,67,-99.99,,,-99.99,,2013-03-13 14:42:00,
2013-03-13 08:52:00,27.0,16.0,30.30,SSE,155,0.0,-999.0,64,-99.99,,,-99.99,,2013-03-13 14:52:00,
2013-03-13 09:02:00,29.0,17.0,30.31,SSE,155,0.0,-999.0,61,-99.99,,,-99.99,,2013-03-13 15:02:00,
2013-03-13 09:11:00,29.0,17.0,30.31,SSE,155,0.0,-999.0,61,-99.99,,,-99.99,,2013-03-13 15:11:00,
2013-03-13 09:22:00,30.0,19.0,30.31,SSE,155,0.0,-999.0,63,-99.99,,,-99.99,,2013-03-13 15:22:00,
2013-03-13 09:32:00,32.0,18.0,30.32,SSE,155,0.0,-999.0,55,-99.99,,,-99.99,,2013-03-13 15:32:00,
2013-03-13 09:42:00,32.0,18.0,30.32,SSE,155,0.0,-999.0,55,-99.99,,,-99.99,,2013-03-13 15:42:00,
2013-03-13 09:52:00,34.0,20.0,30.33,SSE,155,0.0,-999.0,55,-99.99,,,-99.99,,2013-03-13 15:52:00,
2013-03-13 10:02:00,34.0,19.0,30.32,SSE,155,0.0,-999.0,54,-99.99,,,-99.99,,2013-03-13 16:02:00,
2013-03-13 10:11:00,34.0,19.0,30.32,SSE,155,0.0,-999.0,54,-99.99,,,-99.99,,2013-03-13 16:11:00,
2013-03-13 10:21:00,35.0,19.0,30.33,SSE,155,0.0,-999.0,52,-99.99,,,-99.99,,2013-03-13 16:21:00,
2013-03-13 10:32:00,36.0,19.0,30.32,SSE,155,1.0,-999.0,49,-99.99,,,-99.99,,2013-03-13 16:32:00,
2013-03-13 10:42:00,36.0,19.0,30.32,SSE,155,1.0,-999.0,49,-99.99,,,-99.99,,2013-03-13 16:42:00,
2013-03-13 10:52:00,38.0,20.0,30.32,SSE,155,0.0,-999.0,48,-99.99,,,-99.99,,2013-03-13 16:52:00,
2013-03-13 11:02:00,40.0,20.0,30.32,SSE,155,1.0,-999.0,44,-99.99,,,-99.99,,2013-03-13 17:02:00,
2013-03-13 11:11:00,40.0,20.0,30.32,SSE,155,1.0,-999.0,44,-99.99,,,-99.99,,2013-03-13 17:11:00,
2013-03-13 11:22:00,40.0,19.0,30.32,SSE,153,1.0,-999.0,43,-99.99,,,-99.99,,2013-03-13 17:22:00,
2013-03-13 11:32:00,42.0,21.0,30.32,SSE,153,0.0,-999.0,43,-99.99,,,-99.99,,2013-03-13 17:32:00,
2013-03-13 11:42:00,42.0,21.0,30.32,SSE,153,0.0,-999.0,43,-99.99,,,-99.99,,2013-03-13 17:42:00,
2013-03-13 11:52:00,44.0,23.0,30.32,SSE,154,0.0,-999.0,44,-99.99,,,-99.99,,2013-03-13 17:52:00,
2013-03-13 12:02:00,44.0,25.0,30.31,West,281,4.0,-999.0,46,-99.99,,,-99.99,,2013-03-13 18:02:00,
2013-03-13 12:12:00,44.0,25.0,30.31,West,281,4.0,-999.0,46,-99.99,,,-99.99,,2013-03-13 18:12:00,
2013-03-13 12:21:00,45.0,25.0,30.31,West,267,3.0,-999.0,46,-99.99,,,-99.99,,2013-03-13 18:21:00,
2013-03-13 12:32:00,45.0,24.0,30.30,West,260,4.0,-999.0,43,-99.99,,,-99.99,,2013-03-13 18:32:00,
2013-03-13 12:42:00,45.0,24.0,30.30,West,260,4.0,-999.0,43,-99.99,,,-99.99,,2013-03-13 18:42:00,
2013-03-13 12:52:00,47.0,26.0,30.31,South,191,3.0,-999.0,43,-99.99,,,-99.99,,2013-03-13 18:52:00,
2013-03-13 13:02:00,48.0,25.0,30.29,WNW,288,2.0,-999.0,40,-99.99,,,-99.99,,2013-03-13 19:02:00,
2013-03-13 13:12:00,48.0,25.0,30.29,WNW,288,2.0,-999.0,40,-99.99,,,-99.99,,2013-03-13 19:12:00,
2013-03-13 13:22:00,48.0,23.0,30.29,West,270,2.0,-999.0,37,-99.99,,,-99.99,,2013-03-13 19:22:00,
2013-03-13 13:32:00,48.0,21.0,30.30,West,279,4.0,-999.0,34,-99.99,,,-99.99,,2013-03-13 19:32:00,
2013-03-13 13:42:00,48.0,21.0,30.30,West,279,4.0,-999.0,34,-99.99,,,-99.99,,2013-03-13 19:42:00,
2013-03-13 13:52:00,49.0,23.0,30.29,SW,233,3.0,-999.0,36,-99.99,,,-99.99,,2013-03-13 19:52:00,
2013-03-13 14:02:00,50.0,23.0,30.29,SSW,199,3.0,-999.0,34,-99.99,,,-99.99,,2013-03-13 20:02:00,
2013-03-13 14:11:00,50.0,23.0,30.29,SSW,199,3.0,-999.0,34,-99.99,,,-99.99,,2013-03-13 20:11:00,
2013-03-13 14:21:00,49.0,24.0,30.28,West,266,4.0,-999.0,37,-99.99,,,-99.99,,2013-03-13 20:21:00,
2013-03-13 14:32:00,50.0,24.0,30.27,SW,223,3.0,-999.0,36,-99.99,,,-99.99,,2013-03-13 20:32:00,
2013-03-13 14:41:00,50.0,24.0,30.27,SW,223,3.0,-999.0,36,-99.99,,,-99.99,,2013-03-13 20:41:00,
2013-03-13 14:52:00,51.0,26.0,30.27,SSE,166,3.0,-999.0,37,-99.99,,,-99.99,,2013-03-13 20:52:00,
2013-03-13 15:02:00,52.0,27.0,30.26,East,98,2.0,-999.0,37,-99.99,,,-99.99,,2013-03-13 21:02:00,
2013-03-13 15:11:00,52.0,27.0,30.26,East,98,2.0,-999.0,37,-99.99,,,-99.99,,2013-03-13 21:11:00,
2013-03-13 15:21:00,52.0,27.0,30.25,ESE,111,2.0,-999.0,37,-99.99,,,-99.99,,2013-03-13 21:21:00,
2013-03-13 15:41:00,52.0,27.0,30.24,South,188,3.0,-999.0,38,-99.99,,,-99.99,,2013-03-13 21:41:00,
2013-03-13 15:51:00,53.0,26.0,30.24,South,177,3.0,-999.0,35,-99.99,,,-99.99,,2013-03-13 21:51:00,
2013-03-13 16:02:00,53.0,26.0,30.24,South,176,2.0,-999.0,35,-99.99,,,-99.99,,2013-03-13 22:02:00,
2013-03-13 16:11:00,53.0,26.0,30.24,South,176,2.0,-999.0,35,-99.99,,,-99.99,,2013-03-13 22:11:00,
2013-03-13 16:22:00,53.0,25.0,30.24,South,173,3.0,-999.0,34,-99.99,,,-99.99,,2013-03-13 22:22:00,
2013-03-13 16:32:00,54.0,25.0,30.23,South,191,2.0,-999.0,32,-99.99,,,-99.99,,2013-03-13 22:32:00,
2013-03-13 16:42:00,54.0,25.0,30.23,South,191,2.0,-999.0,32,-99.99,,,-99.99,,2013-03-13 22:42:00,
2013-03-13 16:52:00,54.0,25.0,30.23,South,181,2.0,-999.0,32,-99.99,,,-99.99,,2013-03-13 22:52:00,
2013-03-13 17:02:00,54.0,25.0,30.23,South,182,2.0,-999.0,32,-99.99,,,-99.99,,2013-03-13 23:02:00,
2013-03-13 17:11:00,54.0,25.0,30.23,South,182,2.0,-999.0,32,-99.99,,,-99.99,,2013-03-13 23:11:00,
2013-03-13 17:22:00,54.0,25.0,30.23,South,182,2.0,-999.0,32,-99.99,,,-99.99,,2013-03-13 23:22:00,
2013-03-13 17:32:00,54.0,26.0,30.22,East,88,3.0,-999.0,33,-99.99,,,-99.99,,2013-03-13 23:32:00,
2013-03-13 17:52:00,55.0,26.0,30.22,SSE,163,2.0,-999.0,32,-99.99,,,-99.99,,2013-03-13 23:52:00,
2013-03-13 18:02:00,54.0,26.0,30.22,South,185,2.0,-999.0,33,-99.99,,,-99.99,,2013-03-14 00:02:00,
2013-03-13 18:21:00,54.0,28.0,30.21,South,185,0.0,-999.0,36,-99.99,,,-99.99,,2013-03-14 00:21:00,
2013-03-13 18:32:00,51.0,26.0,30.21,South,185,0.0,-999.0,38,-99.99,,,-99.99,,2013-03-14 00:32:00,
2013-03-13 18:42:00,51.0,26.0,30.21,South,185,0.0,-999.0,38,-99.99,,,-99.99,,2013-03-14 00:42:00,
2013-03-13 18:52:00,48.0,25.0,30.22,South,185,0.0,-999.0,41,-99.99,,,-99.99,,2013-03-14 00:52:00,
2013-03-13 19:02:00,46.0,25.0,30.22,South,184,0.0,-999.0,43,-99.99,,,-99.99,,2013-03-14 01:02:00,
2013-03-13 19:32:00,45.0,25.0,30.23,South,184,0.0,-999.0,45,-99.99,,,-99.99,,2013-03-14 01:32:00,
2013-03-13 19:41:00,45.0,25.0,30.23,South,184,0.0,-999.0,45,-99.99,,,-99.99,,2013-03-14 01:41:00,
2013-03-13 19:52:00,44.0,24.0,30.24,South,185,0.0,-999.0,45,-99.99,,,-99.99,,2013-03-14 01:52:00,
2013-03-13 20:02:00,43.0,25.0,30.24,South,185,0.0,-999.0,48,-99.99,,,-99.99,,2013-03-14 02:02:00,
2013-03-13 20:22:00,44.0,23.0,30.24,South,185,0.0,-999.0,43,-99.99,,,-99.99,,2013-03-14 02:22:00,
2013-03-13 20:32:00,43.0,25.0,30.24,South,184,0.0,-999.0,49,-99.99,,,-99.99,,2013-03-14 02:32:00,
2013-03-13 20:42:00,43.0,25.0,30.24,South,184,0.0,-999.0,49,-99.99,,,-99.99,,2013-03-14 02:42:00,
2013-03-13 20:51:00,43.0,25.0,30.24,South,184,0.0,-999.0,49,-99.99,,,-99.99,,2013-03-14 02:51:00,
2013-03-13 21:01:00,40.0,25.0,30.25,South,185,0.0,-999.0,55,-99.99,,,-99.99,,2013-03-14 03:01:00,
2013-03-13 21:12:00,40.0,25.0,30.25,South,185,0.0,-999.0,55,-99.99,,,-99.99,,2013-03-14 03:12:00,
2013-03-13 21:22:00,39.0,23.0,30.25,South,185,0.0,-999.0,53,-99.99,,,-99.99,,2013-03-14 03:22:00,
2013-03-13 21:32:00,38.0,23.0,30.26,South,185,0.0,-999.0,55,-99.99,,,-99.99,,2013-03-14 03:32:00,
2013-03-13 21:42:00,38.0,23.0,30.26,South,185,0.0,-999.0,55,-99.99,,,-99.99,,2013-03-14 03:42:00,
2013-03-13 21:52:00,38.0,23.0,30.27,South,184,0.0,-999.0,54,-99.99,,,-99.99,,2013-03-14 03:52:00,
2013-03-13 22:11:00,38.0,24.0,30.29,South,185,0.0,-999.0,56,-99.99,,,-99.99,,2013-03-14 04:11:00,
2013-03-13 22:22:00,37.0,24.0,30.29,South,184,0.0,-999.0,58,-99.99,,,-99.99,,2013-03-14 04:22:00,
2013-03-13 22:32:00,36.0,23.0,30.29,South,185,0.0,-999.0,58,-99.99,,,-99.99,,2013-03-14 04:32:00,
2013-03-13 22:41:00,36.0,23.0,30.29,South,185,0.0,-999.0,58,-99.99,,,-99.99,,2013-03-14 04:41:00,
2013-03-13 22:52:00,36.0,23.0,30.30,South,185,0.0,-999.0,58,-99.99,,,-99.99,,2013-03-14 04:52:00,
2013-03-13 23:02:00,36.0,22.0,30.30,South,185,0.0,-999.0,56,-99.99,,,-99.99,,2013-03-14 05:02:00,
2013-03-13 23:12:00,36.0,22.0,30.30,South,185,0.0,-999.0,56,-99.99,,,-99.99,,2013-03-14 05:12:00,
2013-03-13 23:22:00,36.0,22.0,30.30,South,184,0.0,-999.0,57,-99.99,,,-99.99,,2013-03-14 05:22:00,
2013-03-13 23:33:00,36.0,22.0,30.29,South,184,0.0,-999.0,56,-99.99,,,-99.99,,2013-03-14 05:33:00,
2013-03-13 23:42:00,36.0,22.0,30.29,South,184,0.0,-999.0,56,-99.99,,,-99.99,,2013-03-14 05:42:00,
2013-03-13 23:52:00,35.0,21.0,30.29,South,185,0.0,-999.0,57,-99.99,,,-99.99,,2013-03-14 05:52:00,